Tracking 28052 objects as of 25-Sep-2023
HD Live streaming from Space Station
objects crossing your sky now

TITAN 4B R/B

Track TITAN 4B R/B now!
10-day predictions
TITAN 4B R/B is classified as:


NORAD ID: 26474
Int'l Code: 2000-047B
Perigee: 537.4 km
Apogee: 613.5 km
Inclination: 68.0 °
Period: 96.0 minutes
Semi major axis: 6946 km
RCS: 15.6118 m2 (large)
Launch date: August 17, 2000
Source: United States (US)
Launch site: AIR FORCE WESTERN TEST RANGE (AFWTR)

Note: This is a ROCKET BODY
Your satellite tracking list
Your tracking list is empty




NASA's NSSDC Master Catalog

Two Line Element Set (TLE):
1 26474U 00047B   23267.88814770  .00004222  00000-0  34210-3 0  9990
2 26474  67.9951  22.9707 0054784 318.5067  41.1923 14.99547435258003
Source of the keplerian elements: AFSPC